| time (UTC) | temp C | wind direction | speed KPH | gust KPH | rain 1hr cm | rain 24hr cm | rain mn cm | humidity % | barometer mb |
| 20260831160340 | 20 | 147 | 1.6 | 11.3 | 0.00 | 1.42 | 1.09 | 96 | 1016.1 |
| 20260831154840 | 20 | 183 | 3.2 | 4.8 | 0.00 | 1.42 | 1.09 | 96 | 1016.3 |
| 20260831154342 | 20 | 189 | 3.2 | 9.7 | 0.03 | 1.42 | 1.09 | 96 | 1016.5 |
| 20260831153839 | 20 | 189 | 8.0 | 11.3 | 0.03 | 1.42 | 1.09 | 96 | 1016.5 |
| 20260831152840 | 20 | 206 | 1.6 | 1.6 | 0.05 | 1.42 | 1.09 | 96 | 1016.4 |
| 20260831151840 | 20 | 163 | 1.6 | 3.2 | 0.08 | 1.42 | 1.09 | 96 | 1016.5 |
| 20260831151340 | 20 | 162 | 3.2 | 4.8 | 0.10 | 1.42 | 1.09 | 96 | 1016.6 |
| 20260831144839 | 20 | 70 | 1.6 | 1.6 | 0.69 | 1.45 | 1.09 | 96 | 1016.1 |
| 20260831143339 | 19 | 149 | 1.6 | 3.2 | 0.69 | 1.40 | 1.04 | 96 | 1016.1 |
| 20260831142839 | 19 | 125 | 1.6 | 3.2 | 0.69 | 1.40 | 1.04 | 96 | 1016.1 |
| 20260831140339 | 19 | 121 | 1.6 | 3.2 | 0.56 | 1.24 | 0.89 | 96 | 1016.3 |
| 20260831135840 | 19 | 199 | 3.2 | 4.8 | 0.41 | 1.09 | 0.74 | 96 | 1016.4 |
| 20260831130839 | 19 | 89 | 1.6 | 3.2 | 0.08 | 0.69 | 0.33 | 96 | 1016.5 |
| 20260831124839 | 19 | 198 | 0.0 | 3.2 | 0.03 | 0.64 | 0.28 | 96 | 1016.4 |
| 20260831123341 | 18 | 198 | 1.6 | 3.2 | 0.03 | 0.64 | 0.28 | 96 | 1016.2 |
| 20260831122840 | 18 | 198 | 0.0 | 0.0 | 0.00 | 0.61 | 0.25 | 96 | 1016.2 |
| 20260831121840 | 18 | 198 | 1.6 | 3.2 | 0.00 | 0.61 | 0.25 | 96 | 1016.1 |
| 20260831121341 | 18 | 198 | 0.0 | 1.6 | 0.00 | 0.61 | 0.25 | 96 | 1016.2 |
| 20260831115839 | 18 | 218 | 0.0 | 1.6 | 0.00 | 0.61 | 0.25 | 95 | 1016.4 |
| 20260831115340 | 18 | 169 | 1.6 | 3.2 | 0.00 | 0.61 | 0.25 | 95 | 1016.3 |
| 20260831114839 | 18 | 175 | 1.6 | 3.2 | 0.00 | 0.61 | 0.25 | 95 | 1016.3 |
| 20260831114340 | 18 | 187 | 1.6 | 3.2 | 0.00 | 0.61 | 0.25 | 95 | 1016.4 |
| 20260831113838 | 18 | 182 | 3.2 | 4.8 | 0.00 | 0.61 | 0.25 | 95 | 1016.4 |
| 20260831112840 | 18 | 78 | 0.0 | 1.6 | 0.03 | 0.61 | 0.25 | 95 | 1016.4 |
| 20260831111339 | 18 | 70 | 1.6 | 4.8 | 0.05 | 0.61 | 0.25 | 95 | 1016.2 |
| 20260831110339 | 18 | 45 | 0.0 | 1.6 | 0.05 | 0.61 | 0.25 | 95 | 1016.3 |
| 20260831105839 | 18 | 45 | 1.6 | 3.2 | 0.05 | 0.61 | 0.25 | 95 | 1016.4 |
| 20260831105340 | 18 | 119 | 0.0 | 3.2 | 0.05 | 0.61 | 0.25 | 95 | 1016.4 |
| 20260831104339 | 18 | 56 | 0.0 | 3.2 | 0.08 | 0.61 | 0.25 | 95 | 1016.5 |
| 20260831103839 | 18 | 106 | 0.0 | 1.6 | 0.08 | 0.61 | 0.25 | 95 | 1016.5 |
| 20260831102840 | 18 | 106 | 0.0 | 1.6 | 0.05 | 0.58 | 0.23 | 95 | 1016.5 |
| 20260831102339 | 18 | 106 | 0.0 | 1.6 | 0.05 | 0.58 | 0.23 | 95 | 1016.6 |
| 20260831101840 | 18 | 106 | 0.0 | 1.6 | 0.05 | 0.58 | 0.23 | 95 | 1016.6 |
| 20260831101340 | 19 | 72 | 0.0 | 1.6 | 0.03 | 0.56 | 0.20 | 95 | 1016.6 |
| 20260831100839 | 19 | 100 | 0.0 | 3.2 | 0.03 | 0.56 | 0.20 | 95 | 1016.7 |
| 20260831095841 | 19 | 112 | 0.0 | 0.0 | 0.03 | 0.56 | 0.20 | 95 | 1016.7 |
| 20260831095339 | 19 | 112 | 0.0 | 0.0 | 0.03 | 0.56 | 0.20 | 95 | 1016.7 |
| 20260831094341 | 19 | 112 | 0.0 | 1.6 | 0.00 | 0.53 | 0.18 | 95 | 1016.7 |
| 20260831093841 | 19 | 112 | 0.0 | 1.6 | 0.00 | 0.53 | 0.18 | 95 | 1016.6 |
| 20260831093339 | 19 | 112 | 0.0 | 1.6 | 0.00 | 0.53 | 0.18 | 95 | 1016.6 |
| 20260831092838 | 19 | 112 | 0.0 | 0.0 | 0.00 | 0.53 | 0.18 | 95 | 1016.6 |
| 20260831092340 | 19 | 112 | 0.0 | 1.6 | 0.00 | 0.53 | 0.18 | 95 | 1016.5 |
| 20260831091839 | 19 | 112 | 0.0 | 0.0 | 0.00 | 0.53 | 0.18 | 95 | 1016.4 |
| 20260831091340 | 19 | 112 | 0.0 | 0.0 | 0.00 | 0.53 | 0.18 | 95 | 1016.5 |
| 20260831090838 | 19 | 112 | 0.0 | 1.6 | 0.00 | 0.53 | 0.18 | 95 | 1016.5 |
| 20260831090341 | 19 | 112 | 0.0 | 1.6 | 0.00 | 0.53 | 0.18 | 95 | 1016.6 |
| 20260831085839 | 19 | 112 | 0.0 | 1.6 | 0.00 | 0.53 | 0.18 | 95 | 1016.7 |
| 20260831083838 | 19 | 191 | 0.0 | 1.6 | 0.00 | 0.53 | 0.18 | 95 | 1016.8 |
| 20260831082840 | 19 | 201 | 1.6 | 1.6 | 0.00 | 0.53 | 0.18 | 95 | 1016.8 |
| 20260831081340 | 19 | 205 | 1.6 | 1.6 | 0.03 | 0.53 | 0.18 | 95 | 1017.0 |
| 20260831080339 | 19 | 157 | 1.6 | 1.6 | 0.05 | 0.53 | 0.18 | 95 | 1017.0 |
| 20260831075841 | 19 | 172 | 1.6 | 3.2 | 0.05 | 0.53 | 0.18 | 95 | 1017.0 |
| 20260831074839 | 19 | 197 | 1.6 | 3.2 | 0.10 | 0.53 | 0.18 | 95 | 1017.0 |
| 20260831074341 | 19 | 207 | 3.2 | 4.8 | 0.13 | 0.53 | 0.18 | 95 | 1017.2 |
| 20260831072840 | 19 | 184 | 3.2 | 4.8 | 0.15 | 0.53 | 0.18 | 95 | 1017.4 |
| 20260831072339 | 19 | 210 | 3.2 | 4.8 | 0.15 | 0.53 | 0.18 | 95 | 1017.5 |
| 20260831071341 | 19 | 220 | 3.2 | 8.0 | 0.13 | 0.51 | 0.15 | 95 | 1017.5 |
| 20260831070841 | 19 | 205 | 1.6 | 4.8 | 0.13 | 0.51 | 0.15 | 95 | 1017.4 |
| 20260831070339 | 19 | 201 | 3.2 | 4.8 | 0.10 | 0.48 | 0.13 | 95 | 1017.4 |
| 20260831065339 | 19 | 230 | 3.2 | 4.8 | 0.05 | 0.43 | 0.08 | 95 | 1017.5 |
| 20260831064839 | 19 | 197 | 3.2 | 4.8 | 0.05 | 0.43 | 0.08 | 95 | 1017.4 |
| 20260831064342 | 19 | 203 | 1.6 | 1.6 | 0.03 | 0.41 | 0.05 | 95 | 1017.5 |
| 20260831063839 | 19 | 208 | 1.6 | 4.8 | 0.03 | 0.41 | 0.05 | 95 | 1017.5 |
| 20260831063341 | 19 | 219 | 3.2 | 8.0 | 0.00 | 0.38 | 0.03 | 95 | 1017.6 |
| 20260831062337 | 19 | 215 | 3.2 | 4.8 | 0.00 | 0.38 | 0.03 | 95 | 1017.6 |
| 20260831055339 | 19 | 222 | 4.8 | 11.3 | 0.00 | 0.38 | 0.03 | 95 | 1017.9 |
| 20260831053839 | 19 | 220 | 0.0 | 0.0 | 0.00 | 0.38 | 0.03 | 95 | 1018.0 |
| 20260831053340 | 19 | 126 | 0.0 | 0.0 | 0.00 | 0.38 | 0.03 | 95 | 1017.8 |
| 20260831052839 | 19 | 93 | 0.0 | 0.0 | 0.00 | 0.38 | 0.03 | 95 | 1017.8 |
| 20260831052343 | 19 | 193 | 0.0 | 0.0 | 0.00 | 0.38 | 0.03 | 95 | 1017.7 |
| 20260831051842 | 19 | 193 | 0.0 | 0.0 | 0.00 | 0.38 | 0.03 | 95 | 1017.7 |
| 20260831051341 | 19 | 193 | 0.0 | 0.0 | 0.00 | 0.38 | 0.03 | 95 | 1017.7 |
| 20260831050841 | 19 | 193 | 0.0 | 0.0 | 0.03 | 0.38 | 0.03 | 95 | 1017.7 |
| 20260831050341 | 19 | 193 | 0.0 | 0.0 | 0.03 | 0.38 | 0.03 | 95 | 1017.8 |
| 20260831044839 | 19 | 193 | 0.0 | 0.0 | 0.00 | 0.38 | 0.03 | 95 | 1017.8 |
| 20260831043838 | 19 | 193 | 0.0 | 0.0 | 0.00 | 0.38 | 0.03 | 95 | 1017.8 |
| 20260831043342 | 19 | 193 | 0.0 | 0.0 | 0.00 | 0.38 | 0.03 | 95 | 1017.8 |
| 20260831042840 | 19 | 193 | 1.6 | 4.8 | 0.00 | 0.38 | 0.03 | 95 | 1017.8 |
| 20260831041339 | 19 | 195 | 1.6 | 3.2 | 0.00 | 0.38 | 0.03 | 95 | 1017.7 |
| 20260831040840 | 19 | 172 | 0.0 | 3.2 | 0.00 | 0.36 | 0.00 | 95 | 1017.7 |
| 20260831040340 | 19 | 220 | 1.6 | 1.6 | 0.00 | 0.36 | 0.00 | 94 | 1017.8 |
| 20260831035840 | 19 | 220 | 0.0 | 0.0 | 0.03 | 0.36 | 0.36 | 94 | 1017.6 |
| 20260831034841 | 19 | 220 | 1.6 | 1.6 | 0.05 | 0.36 | 0.36 | 94 | 1017.7 |
| 20260831033841 | 19 | 253 | 1.6 | 3.2 | 0.05 | 0.36 | 0.36 | 95 | 1017.9 |
| 20260831032838 | 19 | 231 | 3.2 | 4.8 | 0.05 | 0.36 | 0.36 | 94 | 1017.9 |
| 20260831031840 | 19 | 202 | 3.2 | 4.8 | 0.03 | 0.33 | 0.33 | 94 | 1018.0 |
| 20260831014840 | 18 | 208 | 3.2 | 4.8 | 0.03 | 0.18 | 0.18 | 94 | 1018.3 |
| 20260831012839 | 18 | 241 | 0.0 | 3.2 | 0.00 | 0.15 | 0.15 | 94 | 1018.4 |
| 20260831010839 | 18 | 165 | 3.2 | 3.2 | 0.00 | 0.15 | 0.15 | 93 | 1018.1 |
| 20260831005339 | 18 | 208 | 0.0 | 1.6 | 0.00 | 0.15 | 0.15 | 93 | 1018.0 |
| 20260831003839 | 18 | 194 | 1.6 | 1.6 | 0.00 | 0.15 | 0.15 | 93 | 1017.8 |
| 20260831003340 | 18 | 193 | 0.0 | 3.2 | 0.00 | 0.15 | 0.15 | 93 | 1017.8 |
| 20260831002840 | 18 | 200 | 0.0 | 0.0 | 0.00 | 0.15 | 0.15 | 93 | 1017.7 |
| 20260831002339 | 18 | 200 | 0.0 | 0.0 | 0.00 | 0.15 | 0.15 | 93 | 1017.7 |
| 20260831001839 | 18 | 200 | 0.0 | 0.0 | 0.00 | 0.15 | 0.15 | 93 | 1017.7 |
| 20260831001340 | 18 | 200 | 0.0 | 0.0 | 0.00 | 0.15 | 0.15 | 93 | 1017.7 |
| 20260831000839 | 18 | 200 | 0.0 | 0.0 | 0.00 | 0.15 | 0.15 | 93 | 1017.7 |
| 20260830235839 | 18 | 200 | 0.0 | 0.0 | 0.00 | 0.15 | 0.15 | 93 | 1017.6 |
| 20260830235339 | 18 | 200 | 0.0 | 0.0 | 0.00 | 0.15 | 0.15 | 93 | 1017.6 |
| 20260830234339 | 18 | 200 | 0.0 | 0.0 | 0.00 | 0.15 | 0.15 | 92 | 1017.5 |
| 20260830233339 | 18 | 200 | 0.0 | 0.0 | 0.00 | 0.15 | 0.15 | 92 | 1017.5 |
| 20260830231339 | 18 | 200 | 0.0 | 0.0 | 0.03 | 0.15 | 0.15 | 92 | 1017.5 |
| 20260830230839 | 18 | 200 | 0.0 | 0.0 | 0.03 | 0.15 | 0.15 | 92 | 1017.4 |
| 20260830225839 | 18 | 200 | 0.0 | 0.0 | 0.03 | 0.15 | 0.15 | 91 | 1017.4 |
| 20260830224839 | 18 | 200 | 0.0 | 0.0 | 0.03 | 0.15 | 0.15 | 91 | 1017.6 |
| 20260830224344 | 18 | 200 | 0.0 | 0.0 | 0.05 | 0.15 | 0.15 | 91 | 1017.6 |
| 20260830221340 | 18 | 200 | 0.0 | 0.0 | 0.03 | 0.13 | 0.13 | 90 | 1017.7 |
| 20260830220839 | 18 | 206 | 0.0 | 0.0 | 0.03 | 0.13 | 0.13 | 90 | 1017.7 |
| 20260830213838 | 18 | 223 | 3.2 | 4.8 | 0.00 | 0.10 | 0.10 | 88 | 1017.7 |
| 20260830213340 | 18 | 274 | 1.6 | 3.2 | 0.00 | 0.10 | 0.10 | 88 | 1017.7 |
| 20260830212838 | 19 | 256 | 3.2 | 8.0 | 0.00 | 0.10 | 0.10 | 88 | 1017.7 |
| 20260830211839 | 19 | 288 | 1.6 | 3.2 | 0.00 | 0.10 | 0.10 | 88 | 1017.5 |
| 20260830211339 | 19 | 257 | 1.6 | 4.8 | 0.00 | 0.10 | 0.10 | 88 | 1017.5 |
| 20260830210340 | 19 | 273 | 1.6 | 4.8 | 0.00 | 0.10 | 0.10 | 88 | 1017.6 |
| 20260830205340 | 19 | 271 | 3.2 | 8.0 | 0.00 | 0.10 | 0.10 | 88 | 1017.6 |
| 20260830204839 | 19 | 268 | 3.2 | 4.8 | 0.00 | 0.10 | 0.10 | 87 | 1017.6 |
| 20260830203840 | 19 | 279 | 4.8 | 8.0 | 0.00 | 0.10 | 0.10 | 88 | 1017.7 |
| 20260830203339 | 19 | 266 | 3.2 | 4.8 | 0.00 | 0.10 | 0.10 | 87 | 1017.7 |
| 20260830202339 | 19 | 253 | 3.2 | 4.8 | 0.00 | 0.10 | 0.10 | 87 | 1017.8 |
| 20260830201840 | 19 | 254 | 3.2 | 4.8 | 0.00 | 0.10 | 0.10 | 87 | 1017.8 |
| 20260830200839 | 18 | 264 | 1.6 | 1.6 | 0.00 | 0.10 | 0.10 | 87 | 1017.8 |
| 20260830200341 | 18 | 272 | 1.6 | 3.2 | 0.00 | 0.10 | 0.10 | 88 | 1017.9 |
| 20260830195839 | 18 | 301 | 3.2 | 4.8 | 0.00 | 0.10 | 0.10 | 88 | 1017.9 |
| 20260830194839 | 19 | 327 | 1.6 | 3.2 | 0.00 | 0.10 | 0.10 | 89 | 1017.9 |
| 20260830194340 | 19 | 333 | 3.2 | 4.8 | 0.00 | 0.10 | 0.10 | 90 | 1017.9 |
| 20260830193340 | 19 | 282 | 0.0 | 1.6 | 0.00 | 0.10 | 0.10 | 90 | 1018.1 |
| 20260830192839 | 19 | 272 | 3.2 | 4.8 | 0.00 | 0.10 | 0.10 | 90 | 1018.1 |
| 20260830190339 | 19 | 312 | 1.6 | 4.8 | 0.03 | 0.10 | 0.10 | 89 | 1018.3 |
| 20260830185840 | 19 | 290 | 1.6 | 4.8 | 0.05 | 0.10 | 0.10 | 89 | 1018.2 |
| 20260830184840 | 19 | 292 | 3.2 | 4.8 | 0.08 | 0.10 | 0.10 | 89 | 1018.3 |
| 20260830184341 | 19 | 311 | 4.8 | 4.8 | 0.08 | 0.10 | 0.10 | 89 | 1018.2 |
| 20260830183839 | 19 | 282 | 4.8 | 8.0 | 0.08 | 0.10 | 0.10 | 90 | 1018.3 |
| 20260830182839 | 19 | 283 | 3.2 | 4.8 | 0.08 | 0.10 | 0.10 | 89 | 1018.3 |
| 20260830181339 | 19 | 255 | 4.8 | 8.0 | 0.08 | 0.10 | 0.10 | 88 | 1018.6 |
| 20260830180839 | 19 | 259 | 11.3 | 12.9 | 0.05 | 0.08 | 0.08 | 86 | 1018.7 |
| 20260830175839 | 20 | 267 | 4.8 | 8.0 | 0.03 | 0.05 | 0.05 | 87 | 1018.8 |
| 20260830172838 | 20 | 250 | 4.8 | 9.7 | 0.00 | 0.03 | 0.03 | 88 | 1018.6 |
| 20260830172339 | 20 | 243 | 3.2 | 4.8 | 0.00 | 0.03 | 0.03 | 88 | 1018.4 |
| 20260830171339 | 20 | 263 | 3.2 | 8.0 | 0.00 | 0.03 | 0.03 | 88 | 1018.3 |
| 20260830164341 | 20 | 194 | 0.0 | 0.0 | 0.00 | 0.03 | 0.03 | 90 | 1018.2 |
| 20260830163840 | 20 | 234 | 1.6 | 3.2 | 0.00 | 0.03 | 0.03 | 90 | 1018.2 |
| 20260830163340 | 20 | 249 | 0.0 | 4.8 | 0.00 | 0.03 | 0.03 | 90 | 1018.2 |
| 20260830162839 | 20 | 240 | 3.2 | 4.8 | 0.00 | 0.03 | 0.03 | 90 | 1018.2 |
| 20260830162339 | 20 | 179 | 3.2 | 4.8 | 0.00 | 0.03 | 0.03 | 91 | 1018.2 |
| 20260830161840 | 20 | 288 | 1.6 | 1.6 | 0.00 | 0.03 | 0.03 | 91 | 1018.2 |
| 20260830161340 | 20 | 300 | 0.0 | 0.0 | 0.00 | 0.03 | 0.03 | 91 | 1018.1 |
| 20260830160839 | 20 | 300 | 0.0 | 1.6 | 0.00 | 0.03 | 0.03 | 91 | 1018.3 |